• In Moldova, Republic
  • List of Countries
  • For 7 days
  • Water Temperature
  • Satellite Maps
  • Weather Map
  • Weather Widgets
  • user-avatar
    Login

    Hourly Weather Sumgayit

    Today, 27 June, Tuesday

    Time Temperature Precipitation Wind Pressure Humidity
    00:00 +23°C° 0 mm 1 mps 742 mmHg 71%
    01:00 +23°C° 0 mm 1 mps 741 mmHg 71%
    02:00 +23°C° 0 mm 2 mps 741 mmHg 72%
    03:00 +21°C° 0 mm 2 mps 741 mmHg 74%
    04:00 +23°C° 0 mm 2 mps 741 mmHg 72%
    05:00 +22°C° 0 mm 3 mps 741 mmHg 69%
    06:00 +24°C° 0 mm 3 mps 741 mmHg 67%
    07:00 +25°C° 0 mm 4 mps 741 mmHg 61%
    08:00 +27°C° 0 mm 4 mps 740 mmHg 55%
    09:00 +28°C° 0 mm 5 mps 740 mmHg 49%
    10:00 +29°C° 0 mm 5 mps 740 mmHg 46%
    11:00 +30°C° 0 mm 5 mps 740 mmHg 43%
    12:00 +32°C° 0 mm 6 mps 739 mmHg 40%
    13:00 +32°C° 0 mm 6 mps 739 mmHg 40%
    14:00 +32°C° 0 mm 6 mps 738 mmHg 39%
    15:00 +32°C° 0 mm 6 mps 738 mmHg 40%
    16:00 +30°C° 0 mm 6 mps 738 mmHg 42%
    17:00 +29°C° 0 mm 6 mps 738 mmHg 45%
    18:00 +29°C° 0 mm 6 mps 738 mmHg 47%
    19:00 +28°C° 0 mm 5 mps 738 mmHg 51%
    20:00 +27°C° 0 mm 4 mps 738 mmHg 55%
    21:00 +26°C° 0 mm 3 mps 738 mmHg 59%
    22:00 +26°C° 0 mm 3 mps 738 mmHg 60%
    23:00 +25°C° 0 mm 3 mps 737 mmHg 61%

    Tomorrow, 28 June, Wednesday

    Time Temperature Precipitation Wind Pressure Humidity
    00:00 +25°C° 0 mm 2 mps 737 mmHg 63%
    01:00 +25°C° 0 mm 2 mps 737 mmHg 63%
    02:00 +25°C° 0 mm 3 mps 737 mmHg 64%
    03:00 +25°C° 0 mm 3 mps 737 mmHg 65%
    04:00 +25°C° 0 mm 3 mps 737 mmHg 63%
    05:00 +25°C° 0 mm 3 mps 737 mmHg 62%
    06:00 +26°C° 0 mm 2 mps 737 mmHg 61%
    07:00 +27°C° 0 mm 3 mps 737 mmHg 55%
    08:00 +29°C° 0 mm 3 mps 737 mmHg 49%
    09:00 +30°C° 0 mm 3 mps 737 mmHg 42%
    10:00 +32°C° 0 mm 4 mps 737 mmHg 39%
    11:00 +33°C° 0 mm 5 mps 737 mmHg 36%
    12:00 +34°C° 0 mm 5 mps 737 mmHg 33%
    13:00 +34°C° 0 mm 5 mps 737 mmHg 31%
    14:00 +35°C° 0 mm 6 mps 736 mmHg 30%
    15:00 +35°C° 0 mm 6 mps 736 mmHg 29%
    16:00 +34°C° 0 mm 5 mps 736 mmHg 29%
    17:00 +33°C° 0 mm 5 mps 736 mmHg 29%
    18:00 +32°C° 0 mm 4 mps 735 mmHg 30%
    19:00 +30°C° 0 mm 3 mps 736 mmHg 31%
    20:00 +29°C° 0 mm 3 mps 736 mmHg 33%
    21:00 +28°C° 0 mm 2 mps 736 mmHg 34%
    22:00 +28°C° 0 mm 2 mps 736 mmHg 34%
    23:00 +28°C° 0 mm 2 mps 736 mmHg 34%

    Day after tomorrow, 29 June, Thursday

    Time Temperature Precipitation Wind Pressure Humidity
    00:00 +27°C° 0 mm 2 mps 736 mmHg 33%
    01:00 +27°C° 0 mm 2 mps 736 mmHg 34%
    02:00 +27°C° 0 mm 3 mps 735 mmHg 35%
    03:00 +26°C° 0 mm 3 mps 735 mmHg 36%
    04:00 +27°C° 0 mm 3 mps 735 mmHg 36%
    05:00 +27°C° 0 mm 3 mps 735 mmHg 35%
    06:00 +28°C° 0 mm 3 mps 736 mmHg 35%
    07:00 +29°C° 0.1 mm 4 mps 736 mmHg 32%
    08:00 +32°C° 0.1 mm 4 mps 736 mmHg 29%
    09:00 +33°C° 0.1 mm 4 mps 736 mmHg 26%
    10:00 +34°C° 0 mm 4 mps 736 mmHg 24%
    11:00 +35°C° 0 mm 5 mps 736 mmHg 22%
    12:00 +36°C° 0 mm 5 mps 736 mmHg 20%
    13:00 +36°C° 0 mm 5 mps 736 mmHg 20%
    14:00 +36°C° 0 mm 6 mps 735 mmHg 20%
    15:00 +36°C° 0 mm 6 mps 735 mmHg 20%
    16:00 +35°C° 0 mm 6 mps 735 mmHg 21%
    17:00 +34°C° 0 mm 6 mps 735 mmHg 22%
    18:00 +33°C° 0 mm 6 mps 735 mmHg 24%
    19:00 +32°C° 0 mm 6 mps 735 mmHg 26%
    20:00 +30°C° 0 mm 6 mps 735 mmHg 28%
    21:00 +29°C° 0 mm 6 mps 735 mmHg 30%
    22:00 +28°C° 0 mm 6 mps 735 mmHg 30%
    23:00 +28°C° 0 mm 6 mps 735 mmHg 30%

    30 June, Friday

    Time Temperature Precipitation Wind Pressure Humidity
    00:00 +28°C° 0 mm 6 mps 735 mmHg 30%
    01:00 +28°C° 0 mm 6 mps 735 mmHg 31%
    02:00 +27°C° 0 mm 7 mps 735 mmHg 32%
    03:00 +27°C° 0 mm 7 mps 735 mmHg 33%
    04:00 +27°C° 0 mm 7 mps 735 mmHg 33%
    05:00 +28°C° 0 mm 7 mps 735 mmHg 33%
    06:00 +28°C° 0 mm 7 mps 735 mmHg 33%
    07:00 +31°C° 0 mm 8 mps 735 mmHg 31%
    08:00 +32°C° 0 mm 8 mps 736 mmHg 29%
    09:00 +34°C° 0 mm 9 mps 736 mmHg 26%
    10:00 +34°C° 0 mm 9 mps 736 mmHg 26%
    11:00 +35°C° 0 mm 9 mps 736 mmHg 26%
    12:00 +37°C° 0 mm 9 mps 736 mmHg 25%
    13:00 +36°C° 0 mm 10 mps 736 mmHg 26%
    14:00 +36°C° 0 mm 10 mps 735 mmHg 27%
    15:00 +36°C° 0 mm 10 mps 735 mmHg 28%
    16:00 +34°C° 0 mm 10 mps 735 mmHg 30%
    17:00 +33°C° 0 mm 10 mps 735 mmHg 31%
    18:00 +32°C° 0 mm 10 mps 735 mmHg 33%
    19:00 +31°C° 0 mm 10 mps 736 mmHg 33%
    20:00 +31°C° 0 mm 10 mps 736 mmHg 33%
    21:00 +29°C° 0 mm 9 mps 736 mmHg 33%
    22:00 +29°C° 0 mm 10 mps 736 mmHg 32%
    23:00 +29°C° 0 mm 10 mps 736 mmHg 31%

    1 July, Saturday

    Time Temperature Precipitation Wind Pressure Humidity
    00:00 +29°C° 0 mm 10 mps 736 mmHg 30%
    01:00 +29°C° 0 mm 10 mps 736 mmHg 31%
    02:00 +28°C° 0 mm 10 mps 736 mmHg 32%
    03:00 +28°C° 0 mm 10 mps 736 mmHg 32%
    04:00 +28°C° 0 mm 10 mps 737 mmHg 32%
    05:00 +29°C° 0 mm 9 mps 737 mmHg 32%
    06:00 +29°C° 0 mm 9 mps 737 mmHg 31%
    07:00 +31°C° 0 mm 9 mps 738 mmHg 30%
    08:00 +32°C° 0 mm 10 mps 738 mmHg 28%
    09:00 +33°C° 0 mm 10 mps 738 mmHg 27%
    10:00 +34°C° 0 mm 9 mps 738 mmHg 27%
    11:00 +35°C° 0 mm 9 mps 738 mmHg 27%
    12:00 +35°C° 0 mm 9 mps 738 mmHg 26%
    13:00 +35°C° 0 mm 8 mps 738 mmHg 27%
    14:00 +35°C° 0 mm 8 mps 738 mmHg 27%
    15:00 +35°C° 0 mm 8 mps 738 mmHg 27%
    16:00 +35°C° 0 mm 7 mps 738 mmHg 27%
    17:00 +34°C° 0 mm 7 mps 738 mmHg 28%
    18:00 +33°C° 0 mm 6 mps 738 mmHg 29%
    19:00 +32°C° 0 mm 5 mps 738 mmHg 30%
    20:00 +30°C° 0 mm 5 mps 738 mmHg 31%
    21:00 +29°C° 0 mm 4 mps 738 mmHg 33%
    22:00 +29°C° 0 mm 4 mps 738 mmHg 33%
    23:00 +28°C° 0 mm 4 mps 738 mmHg 34%

    2 July, Sunday

    Time Temperature Precipitation Wind Pressure Humidity
    00:00 +28°C° 0 mm 3 mps 738 mmHg 35%
    01:00 +28°C° 0 mm 3 mps 738 mmHg 35%
    02:00 +27°C° 0 mm 3 mps 737 mmHg 35%
    03:00 +27°C° 0 mm 3 mps 737 mmHg 35%
    04:00 +28°C° 0 mm 3 mps 737 mmHg 34%
    05:00 +28°C° 0 mm 3 mps 737 mmHg 33%
    06:00 +29°C° 0 mm 3 mps 738 mmHg 32%
    07:00 +31°C° 0 mm 3 mps 738 mmHg 29%
    08:00 +33°C° 0 mm 3 mps 738 mmHg 27%
    09:00 +35°C° 0 mm 3 mps 738 mmHg 24%
    10:00 +36°C° 0 mm 4 mps 738 mmHg 23%
    11:00 +37°C° 0 mm 4 mps 737 mmHg 21%
    12:00 +39°C° 0 mm 5 mps 737 mmHg 20%
    13:00 +39°C° 0 mm 5 mps 737 mmHg 20%
    14:00 +39°C° 0 mm 6 mps 736 mmHg 20%
    15:00 +39°C° 0 mm 6 mps 736 mmHg 19%
    16:00 +37°C° 0 mm 5 mps 736 mmHg 22%
    17:00 +36°C° 0 mm 5 mps 736 mmHg 24%
    18:00 +35°C° 0 mm 4 mps 735 mmHg 26%
    19:00 +33°C° 0 mm 3 mps 735 mmHg 30%
    20:00 +31°C° 0 mm 2 mps 735 mmHg 33%
    21:00 +30°C° 0 mm 2 mps 735 mmHg 37%
    22:00 +29°C° 0 mm 2 mps 735 mmHg 38%
    23:00 +29°C° 0 mm 2 mps 735 mmHg 38%
    Show more